KJ6EI Weather Reports


time (UTC)temp
C
wind
direction
speed
KPH
gust
KPH
rain 1hr
cm
rain 24hr
cm
rain mn
cm
humidity
%
barometer
mb
20260503213100 26 268 0.0 3.2 0.00 0.00 0.00 37 1011.3
20260503211607 26 315 1.6 4.8 0.00 0.00 0.00 38 1011.5
20260503210049 26 261 1.6 3.2 0.00 0.00 0.00 40 1011.7
20260503204545 26 261 1.6 4.8 0.00 0.00 0.00 41 1012.0
20260503203049 26 248 1.6 6.4 0.00 0.00 0.00 40 1012.1
20260503201542 27 267 0.0 4.8 0.00 0.00 0.00 38 1012.4
20260503200053 25 269 1.6 9.7 0.00 0.00 0.00 40 1012.5
20260503194534 25 309 1.6 9.7 0.00 0.00 0.00 43 1012.8
20260503193035 22 210 6.4 12.9 0.00 0.00 0.00 50 1012.9
20260503191528 22 252 6.4 11.3 0.00 0.00 0.00 50 1012.9
20260503190030 24 237 1.6 6.4 0.00 0.00 0.00 44 1013.0
20260503184528 23 263 1.6 6.4 0.00 0.00 0.00 45 1013.1
20260503183019 23 288 1.6 6.4 0.00 0.00 0.00 45 1013.4
20260503181515 22 272 1.6 4.8 0.00 0.00 0.00 53 1013.4
20260503180012 22 286 1.6 4.8 0.00 0.00 0.00 53 1013.5
20260503174514 21 286 1.6 3.2 0.00 0.00 0.00 55 1013.6
20260503173004 19 280 0.0 3.2 0.00 0.00 0.00 60 1013.7
20260503171559 17 279 1.6 3.2 0.00 0.00 0.00 64 1013.7
20260503081505 15 35 0.0 0.0 0.00 0.08 0.00 73 1013.5
20260503080107 15 35 0.0 0.0 0.00 0.08 0.00 73 1013.5
20260503071602 15 94 0.0 0.0 0.00 0.08 0.00 68 1013.5
20260503054550 16 344 1.6 4.8 0.00 0.08 0.08 66 1013.2
20260503053049 16 331 1.6 4.8 0.00 0.08 0.08 66 1013.2
20260503051549 16 286 0.0 0.0 0.00 0.08 0.08 65 1013.3
20260503050048 16 286 0.0 0.0 0.00 0.08 0.08 65 1013.2
20260503044552 16 286 0.0 0.0 0.00 0.08 0.08 63 1013.3
20260503043052 16 286 0.0 0.0 0.00 0.08 0.08 62 1013.1
20260503041547 17 286 0.0 0.0 0.00 0.08 0.08 61 1013.0
20260503040049 17 286 0.0 0.0 0.00 0.08 0.08 64 1012.9
20260503034552 18 286 0.0 0.0 0.00 0.08 0.08 63 1012.7
20260503033045 18 286 0.0 0.0 0.00 0.08 0.08 59 1012.5
20260503031545 18 286 0.0 0.0 0.00 0.08 0.08 58 1012.3
20260503030104 19 286 0.0 0.0 0.00 0.08 0.08 59 1012.2
20260503024543 20 286 0.0 0.0 0.00 0.08 0.08 57 1012.2
20260503023044 20 286 0.0 0.0 0.00 0.08 0.08 57 1012.2
20260503021542 21 286 0.0 0.0 0.00 0.08 0.08 58 1012.3
20260503020040 21 286 0.0 0.0 0.00 0.08 0.08 56 1012.5
20260503014552 21 286 0.0 0.0 0.00 0.08 0.08 55 1012.7
20260503013038 21 273 0.0 3.2 0.00 0.08 0.08 51 1012.7
20260503011547 22 261 0.0 3.2 0.00 0.08 0.08 52 1012.7
20260503010035 22 261 0.0 3.2 0.00 0.08 0.08 52 1012.8
20260503004536 22 232 3.2 6.4 0.00 0.08 0.08 48 1013.0
20260503003032 23 359 0.0 3.2 0.00 0.08 0.08 44 1013.1
20260503001530 26 359 1.6 3.2 0.00 0.08 0.08 39 1013.2
20260503000032 25 5 1.6 6.4 0.00 0.08 0.08 40 1013.3
20260502234526 25 300 1.6 4.8 0.00 0.08 0.08 39 1013.6
20260502233026 24 282 1.6 4.8 0.00 0.08 0.08 42 1013.6
20260502231524 25 298 1.6 4.8 0.00 0.08 0.08 46 1013.8
20260502230021 26 261 0.0 3.2 0.00 0.08 0.08 43 1013.9
20260502224522 27 248 0.0 4.8 0.00 0.08 0.08 40 1014.1
20260502223018 26 265 0.0 3.2 0.00 0.08 0.08 42 1014.3
20260502221517 25 278 1.6 4.8 0.00 0.08 0.08 47 1014.5
20260502220015 26 259 0.0 1.6 0.00 0.08 0.08 42 1014.6
20260502214515 25 254 1.6 6.4 0.00 0.08 0.08 41 1014.8